Date String (YYYY-MM-DD hh:mm:ss) UTC,Instrument flags,absolute air pressure of the measurement (hPa),sample flow rate (lpm),inlet stack bypass flow (lpm),air temperature of the measurement (°C),ambient temperature measured by the external sensor (°C),aerosol sample conditioner tube jacket temperature (°C),OPC LED temperature (°C),internal box temperature (°C),relative humidity of the measurement (%),span deviation,mass concentration of particles derived from Lorenz-Mie calculation of OPC scattering (μg/m³),mass concentration of particles derived from Lorenz-Mie calculation of OPC scattering (μg/m³),mass concentration of particles derived from Lorenz-Mie calculation of OPC scattering (μg/m³)
DateTimeUTC,F1_M11,P_M11,Q1_M11,Q2_M11,T1_M11,T2_M11,T3_M11,T4_M11,T5_M11,U1_M11,ZSPAN_M11,X2_M11,X0_M11,X1_M11
2024-02-01 12:00:00,SystemResetWarning,0825.1,4.99,000.00,024.4,023.7,000.0,032.8,026.1,10.9,0000.0,0005.30,0012.44,0004.72
2024-02-01 12:01:00,SystemResetWarning,0825.0,4.99,000.00,024.4,023.7,000.0,032.8,026.1,10.8,0000.0,0005.16,0011.54,0004.65
2024-02-01 12:02:00,SystemResetWarning,0825.0,5.00,000.00,024.4,023.7,000.0,032.8,026.1,10.8,0000.0,0004.97,0010.31,0004.53
2024-02-01 12:03:00,SystemResetWarning,0825.0,5.00,000.00,024.4,023.6,000.0,032.8,026.1,10.9,0000.0,0004.87,0009.93,0004.45
2024-02-01 12:04:00,SystemResetWarning,0825.0,5.00,000.00,024.4,023.6,000.0,032.8,026.1,11.0,0000.0,0004.77,0010.09,0004.37
2024-02-01 12:05:00,SystemResetWarning,0825.0,5.00,000.00,024.4,023.6,000.0,032.8,026.1,11.0,0000.0,0004.78,0010.52,0004.39
2024-02-01 12:06:00,SystemResetWarning,0825.0,5.00,000.00,024.3,023.6,000.0,032.8,026.1,11.0,0000.0,0004.68,0010.05,0004.30
2024-02-01 12:07:00,SystemResetWarning,0825.0,5.00,000.00,024.3,023.5,000.0,032.8,026.1,10.9,0000.0,0004.43,0009.03,0004.09
2024-02-01 12:08:00,SystemResetWarning,0825.0,5.00,000.00,024.3,023.5,000.0,032.8,026.1,10.8,0000.0,0004.13,0008.75,0003.85
2024-02-01 12:09:00,SystemResetWarning,0825.0,4.99,000.00,024.3,023.5,000.0,032.7,026.0,10.7,0000.0,0003.99,0008.99,0003.71
2024-02-01 12:10:00,SystemResetWarning,0825.0,5.00,000.00,024.3,023.5,000.0,032.7,026.0,10.9,0000.0,0003.86,0008.31,0003.58
2024-02-01 12:11:00,SystemResetWarning,0824.9,5.00,000.00,024.3,023.5,000.0,032.7,026.0,11.1,0000.0,0003.73,0007.95,0003.47
2024-02-01 12:12:00,SystemResetWarning,0824.9,5.00,000.00,024.3,023.5,000.0,032.7,026.0,11.0,0000.0,0003.57,0007.65,0003.34
2024-02-01 12:13:00,SystemResetWarning,0824.9,5.00,000.00,024.3,023.5,000.0,032.7,026.0,11.0,0000.0,0003.42,0007.42,0003.19
2024-02-01 12:14:00,SystemResetWarning,0825.0,5.00,000.00,024.3,023.4,000.0,032.7,026.0,11.1,0000.0,0003.26,0007.10,0003.02
2024-02-01 12:15:00,SystemResetWarning,0825.0,5.00,000.00,024.2,023.4,000.0,032.7,026.0,11.1,0000.0,0003.18,0006.53,0002.90
2024-02-01 12:16:00,SystemResetWarning,0824.9,5.00,000.00,024.2,023.4,000.0,032.7,025.9,10.7,0000.0,0003.17,0006.31,0002.86
2024-02-01 12:17:00,SystemResetWarning,0824.9,5.01,000.00,024.2,023.4,000.0,032.7,025.9,10.6,0000.0,0003.18,0006.32,0002.86
2024-02-01 12:18:00,SystemResetWarning,0824.9,5.00,000.00,024.2,023.3,000.0,032.6,025.9,10.7,0000.0,0003.16,0006.54,0002.83
2024-02-01 12:19:00,SystemResetWarning,0824.9,5.00,000.00,024.2,023.3,000.0,032.6,025.9,11.1,0000.0,0003.17,0006.64,0002.81
2024-02-01 12:20:00,SystemResetWarning,0824.9,5.00,000.00,024.2,023.3,000.0,032.6,025.9,11.2,0000.0,0003.15,0006.36,0002.76
2024-02-01 12:21:00,SystemResetWarning,0824.9,5.01,000.00,024.2,023.3,000.0,032.6,025.9,11.2,0000.0,0003.19,0007.24,0002.84
2024-02-01 12:22:00,SystemResetWarning,0824.9,5.01,000.00,024.2,023.3,000.0,032.6,025.9,11.1,0000.0,0003.21,0007.32,0002.84
2024-02-01 12:23:00,SystemResetWarning,0824.9,4.99,000.00,024.1,023.3,000.0,032.6,025.9,11.1,0000.0,0003.23,0007.62,0002.84
2024-02-01 12:24:00,SystemResetWarning,0824.9,5.00,000.00,024.1,023.3,000.0,032.6,025.9,11.0,0000.0,0003.26,0007.66,0002.89
2024-02-01 12:25:00,SystemResetWarning,0824.9,4.99,000.00,024.1,023.3,000.0,032.6,025.9,11.2,0000.0,0003.28,0007.69,0002.92
2024-02-01 12:26:00,SystemResetWarning,0824.9,5.00,000.00,024.1,023.3,000.0,032.6,025.9,11.2,0000.0,0003.25,0007.66,0002.87
2024-02-01 12:27:00,SystemResetWarning,0824.9,5.01,000.00,024.1,023.3,000.0,032.6,025.8,11.3,0000.0,0003.17,0006.84,0002.75
2024-02-01 12:28:00,SystemResetWarning,0824.9,5.01,000.00,024.1,023.3,000.0,032.5,025.8,11.1,0000.0,0003.03,0007.00,0002.58
2024-02-01 12:29:00,SystemResetWarning,0824.9,4.99,000.00,024.1,023.2,000.0,032.5,025.7,11.0,0000.0,0002.87,0007.58,0002.45
2024-02-01 12:30:00,SystemResetWarning,0824.9,4.99,000.00,024.1,023.2,000.0,032.5,025.7,11.1,0000.0,0002.83,0007.49,0002.40
2024-02-01 12:31:00,SystemResetWarning,0824.9,5.00,000.00,024.1,023.2,000.0,032.5,025.8,11.1,0000.0,0002.79,0007.39,0002.37
2024-02-01 12:32:00,SystemResetWarning,0824.9,5.00,000.00,024.1,023.2,000.0,032.5,025.7,11.2,0000.0,0002.66,0006.50,0002.26
2024-02-01 12:33:00,SystemResetWarning,0824.9,5.01,000.00,024.1,023.2,000.0,032.5,025.7,11.2,0000.0,0002.53,0006.25,0002.17
2024-02-01 12:34:00,SystemResetWarning,0824.8,5.00,000.00,024.0,023.2,000.0,032.5,025.7,11.4,0000.0,0002.47,0005.68,0002.14
2024-02-01 12:35:00,SystemResetWarning,0824.9,5.00,000.00,024.0,023.2,000.0,032.5,025.7,11.5,0000.0,0002.39,0005.53,0002.08
2024-02-01 12:36:00,SystemResetWarning,0824.9,5.00,000.00,024.0,023.2,000.0,032.5,025.7,11.5,0000.0,0002.30,0005.41,0002.00
2024-02-01 12:37:00,SystemResetWarning,0824.9,5.00,000.00,024.0,023.2,000.0,032.5,025.7,11.6,0000.0,0002.22,0005.28,0001.93
2024-02-01 12:38:00,SystemResetWarning,0824.9,4.99,000.00,024.0,023.2,000.0,032.4,025.7,11.6,0000.0,0002.15,0005.55,0001.87
2024-02-01 12:39:00,SystemResetWarning,0824.9,4.99,000.00,024.0,023.2,000.0,032.4,025.7,11.6,0000.0,0002.08,0005.04,0001.80
2024-02-01 12:40:00,SystemResetWarning,0824.9,4.99,000.00,024.0,023.2,000.0,032.4,025.7,11.7,0000.0,0001.99,0003.78,0001.72
2024-02-01 12:41:00,SystemResetWarning,0824.9,5.00,000.00,024.0,023.2,000.0,032.4,025.7,11.7,0000.0,0001.81,0003.68,0001.60
2024-02-01 12:42:00,SystemResetWarning,0824.9,5.01,000.00,024.0,023.1,000.0,032.4,025.7,11.7,0000.0,0001.61,0003.72,0001.47
2024-02-01 12:43:00,SystemResetWarning,0824.9,5.01,000.00,024.0,023.1,000.0,032.4,025.6,11.8,0000.0,0001.44,0002.95,0001.33
2024-02-01 12:44:00,SystemResetWarning,0824.9,4.99,000.00,024.0,023.1,000.0,032.4,025.6,11.6,0000.0,0001.31,0002.78,0001.22
2024-02-01 12:45:00,SystemResetWarning,0824.9,4.99,000.00,023.9,023.1,000.0,032.4,025.6,11.7,0000.0,0001.18,0002.61,0001.12
2024-02-01 12:46:00,SystemResetWarning,0824.9,4.99,000.00,023.9,023.1,000.0,032.4,025.6,11.6,0000.0,0001.11,0002.51,0001.05
2024-02-01 12:47:00,SystemResetWarning,0824.9,5.01,000.00,023.9,023.1,000.0,032.4,025.6,11.6,0000.0,0001.09,0002.49,0001.04
2024-02-01 12:48:00,SystemResetWarning,0824.9,5.01,000.00,023.9,023.1,000.0,032.3,025.5,11.8,0000.0,0001.08,0002.49,0001.03
2024-02-01 12:49:00,SystemResetWarning,0824.9,5.01,000.00,023.9,023.0,000.0,032.3,025.5,11.9,0000.0,0001.06,0002.10,0001.02
2024-02-01 12:50:00,SystemResetWarning,0824.9,4.99,000.00,023.9,023.0,000.0,032.3,025.6,11.8,0000.0,0001.05,0002.05,0001.02
2024-02-01 12:51:00,SystemResetWarning,0824.9,4.99,000.00,023.9,023.0,000.0,032.3,025.5,11.9,0000.0,0001.05,0002.13,0001.03
2024-02-01 12:52:00,SystemResetWarning,0824.9,5.00,000.00,023.9,023.0,000.0,032.3,025.5,11.9,0000.0,0001.05,0001.65,0001.03
2024-02-01 12:53:00,SystemResetWarning,0824.9,4.99,000.00,023.9,023.0,000.0,032.3,025.5,11.8,0000.0,0001.07,0001.26,0001.03
2024-02-01 12:54:00,SystemResetWarning,0824.9,5.00,000.00,023.8,023.0,000.0,032.3,025.5,11.9,0000.0,0001.07,0001.27,0001.03
2024-02-01 12:55:00,SystemResetWarning,0824.8,5.01,000.00,023.8,023.0,000.0,032.3,025.5,11.8,0000.0,0001.06,0001.26,0001.02
2024-02-01 12:56:00,SystemResetWarning,0824.9,5.00,000.00,023.8,023.0,000.0,032.3,025.5,11.8,0000.0,0001.06,0001.27,0001.02
2024-02-01 12:57:00,SystemResetWarning,0824.8,5.00,000.00,023.8,023.0,000.0,032.3,025.5,11.8,0000.0,0001.08,0001.29,0001.02
2024-02-01 12:58:00,SystemResetWarning,0824.9,5.00,000.00,023.8,023.0,000.0,032.3,025.5,11.7,0000.0,0001.08,0001.62,0001.02
2024-02-01 12:59:00,SystemResetWarning,0824.9,5.00,000.00,023.8,022.9,000.0,032.2,025.5,11.9,0000.0,0001.09,0002.05,0001.02
